Home > Weather > Astana > Past weeks

Flag for Kazakhstan Weather for the Past 2 Weeks in Astana, Kazakhstan

Now
12 °F

Passing clouds.


Feels Like: 1 °F
Forecast: 0 / 8 °F
Wind: 8 mph from Southeast

Location: Astana

Current Time: Feb 14, 2016 at 3:19:04 PM

Latest Report: Feb 14, 2016 at 2:30 PM


Visibility: N/A

Pressure: 30.45 "Hg

Humidity: 73%

Dew point: 5 °F

Location of AstanaLocation

Historic Weather in Astana — Graph

°F

Astana Temperature Yesterday

Maximum temperature yesterday: 16 °F (at 2:30 PM)
Minimum temperature yesterday: 0 °F (at 11:30 PM)
Average temperature yesterday: 10 °F

High & Low Weather Summary for the Past Weeks

 TemperatureHumidityPressure
High34 °F (Feb 5, 11:30 PM)100% (Feb 1, 2:00 AM)30.74 "Hg (Feb 1, 2:00 AM)
Low-15 °F (Feb 10, 9:00 AM)60% (Feb 6, 3:00 PM)29.62 "Hg (Feb 7, 8:00 PM)
Average14 °F84%30.28 "Hg
* Reported Jan 30 1:00 PM — Feb 14 1:30 PM, Astana, Weather by CustomWeather, © 2016

Note: Actual official high and low records may vary slightly from our data, if they occured in-between our weather recording intervals... More about our weather records

Advertising

Astana Weather History for the Previous 24 Hours

 ConditionsComfort  
Time TempWeatherWind HumidityBarometerVisibility
1:30 PM
Sun, Feb 14
10 °FSunny.8 mph72%30.45 "Hg10 mi
1:00 PM10 °FSunny.10 mph72%30.48 "Hg10 mi
12:30 PM10 °FSunny.8 mph72%30.48 "Hg10 mi
12:00 PM9 °FSunny.8 mph72%30.48 "Hg10 mi
11:30 AM5 °FSunny.6 mph78%30.48 "Hg10 mi
11:00 AM5 °FSunny.6 mph72%30.48 "Hg10 mi
10:30 AM5 °FSunny.6 mph72%30.48 "Hg10 mi
10:00 AM3 °FSunny.6 mph78%30.48 "Hg10 mi
9:30 AM5 °FSunny.8 mph78%30.48 "Hg10 mi
9:00 AM3 °FClear.6 mph78%30.48 "Hg10 mi
8:30 AM1 °FClear.8 mph78%30.48 "Hg10 mi
8:00 AM3 °FClear.3 mph85%30.48 "Hg10 mi
7:30 AM5 °FClear.6 mph78%30.48 "Hg10 mi
7:00 AM5 °FClear.10 mph78%30.48 "Hg10 mi
6:30 AM7 °FClear.10 mph78%30.48 "Hg10 mi
6:00 AM9 °FClear.10 mph72%30.48 "Hg10 mi
5:30 AM7 °FClear.10 mph78%30.48 "Hg10 mi
5:00 AM9 °FClear.13 mph72%30.48 "Hg10 mi
4:30 AM9 °FClear.10 mph72%30.48 "Hg10 mi
4:00 AM7 °FClear.15 mph78%30.48 "Hg10 mi
3:30 AM7 °FClear.13 mph78%30.48 "Hg10 mi
3:00 AM3 °FClear.10 mph78%30.48 "Hg10 mi
2:30 AM3 °FClear.8 mph78%30.48 "Hg10 mi
2:00 AM0 °FClear.6 mph78%30.51 "Hg10 mi
1:30 AM1 °FClear.8 mph78%30.51 "Hg10 mi
1:00 AM1 °FClear.8 mph71%30.51 "Hg10 mi
12:30 AM1 °FClear.8 mph78%30.51 "Hg10 mi
12:00 AM0 °FClear.8 mph78%30.51 "Hg10 mi
11:30 PM
Sat, Feb 13
0 °FClear.8 mph84%30.51 "Hg10 mi
11:00 PM1 °FClear.8 mph78%30.51 "Hg10 mi
10:30 PM1 °FClear.6 mph85%30.51 "Hg10 mi
10:00 PM3 °FClear.6 mph78%30.51 "Hg10 mi
9:30 PM5 °FPassing clouds.6 mph78%30.51 "Hg6 mi
9:00 PM3 °FPassing clouds.10 mph85%30.51 "Hg6 mi
8:30 PM3 °FClear.6 mph78%30.51 "Hg10 mi
8:00 PM5 °FClear.8 mph78%30.51 "Hg10 mi
7:30 PM1 °FClear.8 mph78%30.51 "Hg10 mi
7:00 PM3 °FSunny.3 mph78%30.51 "Hg10 mi
6:30 PM5 °FSunny.8 mph78%30.51 "Hg10 mi
6:00 PM9 °FSunny.8 mph78%30.51 "Hg10 mi
5:30 PM9 °FSunny.8 mph78%30.51 "Hg10 mi
5:00 PM12 °FSunny.6 mph79%30.51 "Hg10 mi
4:30 PM14 °FSunny.6 mph79%30.51 "Hg10 mi
4:00 PM14 °FSunny.6 mph79%30.51 "Hg10 mi
3:30 PM14 °FSunny.8 mph79%30.51 "Hg10 mi
3:00 PM14 °FSunny.8 mph79%30.48 "Hg10 mi
Weather by CustomWeather, © 2016

See weather overviewHow to use our weather pages